CST,Max TemperatureF,Mean TemperatureF,Min TemperatureF,Max Dew PointF,MeanDew PointF,Min DewpointF,Max Humidity, Mean Humidity, Min Humidity, Max Sea Level PressureIn, Mean Sea Level PressureIn, Min Sea Level PressureIn, Max VisibilityMiles, Mean VisibilityMiles, Min VisibilityMiles, Max Wind SpeedMPH, Mean Wind SpeedMPH, Max Gust SpeedMPH,PrecipitationIn, CloudCover, Events, WindDirDegrees
2013-2-1,3,-4,-12,-2,-13,-20,87,69,51,30.35,30.26,30.09,10,8,2,16,6,21,0.04,3,Snow,250
2013-2-2,8,4,0,3,-2,-7,88,72,55,30.21,30.10,29.95,10,6,2,7,2,9,T,6,Snow,2
2013-2-3,14,10,6,5,2,0,88,72,55,30.07,30.01,29.92,10,7,0,15,6,20,T,6,Snow,276
2013-2-4,14,7,0,7,0,-5,83,66,48,30.08,30.00,29.88,10,8,1,9,3,12,0.02,4,Snow,19
2013-2-5,26,14,2,20,11,1,91,73,55,30.11,29.82,29.63,10,7,1,16,6,22,0.05,6,Snow,230
2013-2-6,26,10,-6,21,9,-11,92,84,75,30.18,30.09,30.00,9,4,0,14,4,16,0.07,5,Fog-Snow,104
2013-2-7,27,26,25,25,22,19,92,87,81,30.25,30.09,29.99,10,6,2,15,9,20,T,8,Snow,33
2013-2-8,26,15,4,18,9,2,92,69,46,30.42,30.35,30.22,10,10,10,17,3,23,T,1,,40
2013-2-9,28,17,5,23,19,2,88,82,75,30.34,30.15,30.01,10,8,6,18,9,23,0.00,8,,159
2013-2-10,36,31,26,36,30,22,100,91,81,30.01,29.49,29.23,10,6,0,22,10,29,0.48,8,Fog-Rain-Snow,118
2013-2-11,35,28,21,34,25,14,96,82,68,30.03,29.57,29.24,10,7,1,24,13,32,0.16,8,Rain-Snow,274
2013-2-12,33,24,15,22,17,10,88,74,59,30.05,29.95,29.81,10,10,7,16,8,20,T,3,Snow,219
2013-2-13,36,28,20,30,25,17,92,78,64,29.80,29.66,29.55,10,6,1,10,6,13,0.08,7,Snow,189
2013-2-14,34,24,13,30,20,0,100,76,51,30.14,29.80,29.54,10,7,1,16,8,22,0.27,6,Snow,349
2013-2-15,17,11,4,2,0,-2,76,64,51,30.28,30.24,30.15,10,10,10,14,7,18,0.00,3,,278
2013-2-16,17,6,-6,1,-2,-10,87,67,47,30.25,30.22,30.15,10,10,9,8,2,9,T,4,,277
2013-2-17,26,8,-11,14,2,-15,86,68,50,30.21,30.03,29.78,10,10,10,18,7,24,0.00,1,,130
2013-2-18,36,27,17,30,21,10,92,80,68,29.74,29.59,29.49,10,8,1,21,10,26,0.03,6,Snow,262
2013-2-19,17,10,2,8,-4,-8,76,63,50,30.33,29.99,29.68,10,9,4,23,14,33,T,4,Snow,315
2013-2-20,19,7,-5,5,-1,-10,79,65,51,30.47,30.42,30.33,10,10,10,10,6,16,0.00,2,,323
2013-2-21,21,9,-3,11,4,-5,87,70,52,30.51,30.35,30.10,10,10,10,14,6,17,0.00,1,,56
2013-2-22,29,25,20,23,20,13,92,80,67,30.10,29.90,29.80,10,3,0,17,8,22,0.33,8,Fog-Snow,36
2013-2-23,29,25,21,22,20,18,92,84,75,29.96,29.86,29.80,10,8,2,12,7,15,T,8,Snow,250
2013-2-24,34,25,15,21,18,12,92,74,56,30.13,30.07,29.98,10,8,0,8,2,10,0.00,4,Fog,258
2013-2-25,34,25,16,26,22,14,92,81,69,30.14,30.10,30.06,9,7,5,8,1,9,T,8,,131
2013-2-26,37,31,25,25,24,21,85,75,64,30.07,29.94,29.81,10,8,5,21,10,25,0.00,5,,49
2013-2-27,35,33,31,27,24,21,78,71,64,29.96,29.84,29.79,10,9,2,22,11,29,T,8,Snow,9
2013-2-28,32,28,23,25,19,12,78,68,58,30.23,30.10,29.94,10,10,8,17,10,23,T,8,Snow,15